Location: Pyatts
(38.0031°N, 89.3712°W)
Time: 05:43:47
(UTC+00:00)

Daily predictions for brighter satellites

Satellite Brightness Start Highest point End
(mag) Time Altitude Azimuth Time Altitude Azimuth Time Altitude Azimuth
Meteor 1-16 Rocket 4.4 00:48:55 10° S 00:54:25 53° E 00:59:47 10° NNE
COSMOS 2406 3.7 00:49:01 10° NNW 00:54:45 69° WSW 01:00:26 10° S
Cosmos 1331 Rocket 4.1 00:56:16 10° SSW 01:01:28 86° WNW 01:06:45 10° NNE
Cosmos 1953 2.7 00:58:41 10° SSE 01:02:14 38° E 01:05:48 10° NNE
Cosmos 1850 Rocket 4.1 00:57:03 10° N 01:02:19 61° ENE 01:07:28 10° SSE
CZ-4B R/B 2.6 00:58:40 10° SSE 01:02:28 70° ENE 01:06:06 10° N
Cosmos 2297 3.8 01:00:26 10° SSW 01:06:05 88° WNW 01:11:49 10° NNE
SL-08 R/B 4.4 01:02:38 10° N 01:07:11 50° WNW 01:11:46 10° SSW
Meteor PRIRODA 4.4 01:05:19 10° S 01:08:38 50° W 01:11:59 10° NNW
CZ-4B DEB 4.2 01:04:14 10° SSE 01:09:45 79° ENE 01:15:19 10° N
ADEOS Rocket 3.4 01:05:26 10° S 01:10:58 60° WSW 01:16:24 10° NNW
SJ 16-02 2.6 01:10:56 10° NNE 01:14:23 23° ENE 01:17:18 12° ESE
Cosmos 2369 Rocket 2.2 01:09:48 10° SSW 01:15:29 81° ESE 01:21:10 10° NNE
DELTA 2 DEB (DPAF) 4.4 01:11:29 10° NNE 01:15:30 40° E 01:19:28 10° S
ADEOS 4.2 01:10:51 10° S 01:15:59 59° WSW 01:21:08 10° NNW
NOSS 2-2 (C) 4.0 01:15:22 10° SW 01:18:43 47° NW 01:21:46 10° NNE
SL-8 Rocket 4.2 01:12:47 10° N 01:18:46 49° E 01:24:40 10° SSE
Iridium 82 4.5 01:15:19 10° N 01:18:50 87° E 01:22:30 10° S
SPOT 1/Viking Rocket 3.6 01:19:04 10° SSE 01:24:12 66° ENE 01:29:23 10° N
Cosmos 2263 4.1 01:18:47 10° S 01:24:22 69° ESE 01:29:57 10° NNE
Cosmos 2098 Rocket 4.3 01:20:21 10° SSE 01:25:04 29° E 01:29:07 10° NNE
CZ-4B R/B 3.3 01:24:01 10° SSE 01:29:35 65° ENE 01:35:09 10° N
Cosmos 2341 Rocket 4.0 01:23:46 10° N 01:30:02 67° E 01:36:13 10° SSE
Okean-O 4.1 01:28:33 15° E 01:30:23 19° ENE 01:33:31 10° NNE
Cosmos 1674 Rocket 4.3 01:26:01 10° NNW 01:30:24 56° W 01:34:44 10° S
Cosmos 1825 1.9 01:27:21 10° N 01:30:46 63° E 01:34:11 10° SSE
PSLV R/B 4.3 01:28:18 15° SE 01:30:51 35° ENE 01:34:16 10° N
USA 234 3.3 01:28:21 13° SE 01:34:13 75° NE 01:40:44 10° NW
NOSS 3-1 (C) 2.9 01:32:27 10° SSW 01:36:59 53° ESE 01:42:14 10° NE
Hubble Space Telescope 2.3 01:37:24 10° SW 01:40:22 20° S 01:41:39 17° SSE
Resurs 1-3 4.3 01:38:27 10° S 01:42:42 56° W 01:46:59 10° NNW
Cosmos 2366 rocket 4.0 01:43:16 10° N 01:49:39 76° E 01:55:59 10° S
Cosmos 1025 Rocket 3.0 01:46:56 10° N 01:51:19 89° E 01:55:30 11° S
Okean O Rocket 1.5 01:49:28 18° SSE 01:52:35 68° ENE 01:56:56 10° N
Nadezhda 3 Rocket 4.5 01:49:58 17° SE 01:54:01 36° E 01:59:34 10° NNE
Cosmos 2218 Rocket 4.0 01:50:33 10° N 01:56:59 84° E 02:03:20 10° S
Resurs 01 Rocket 1.5 01:55:01 18° SSE 01:58:16 81° ENE 02:02:41 10° N
ATLAS 3B R/B 3.0 01:51:50 10° S 01:58:20 47° ESE 02:05:19 10° NE
CARTOSAT-1 3.4 01:58:16 23° SSE 02:00:54 76° ENE 02:05:10 10° N
Cosmos 1346 Rocket 3.9 01:58:10 10° SSW 02:01:49 43° WNW 02:05:29 10° N
Cosmos 1975 Rocket 3.0 01:59:08 10° N 02:03:26 62° E 02:05:11 33° SSE
USA 281 3.3 01:59:34 23° SE 02:03:47 63° ENE 02:10:16 10° NNW
Cosmos 1821 Rocket 4.1 01:59:12 10° N 02:05:15 55° E 02:08:32 26° SSE
USA 129 3.5 02:03:12 10° N 02:05:09 30° NW 02:05:09 30° NW
Cosmos 1959 Rocket 4.5 02:01:00 10° N 02:07:10 86° W 02:13:20 10° S
Cosmos 1328 4.5 02:05:02 10° NNW 02:08:41 50° W 02:11:46 14° SSW
SL-27 R/B 4.5 02:09:40 10° NNE 02:10:18 13° NNE 02:10:18 13° NNE
OAO 3 Rocket 3.3 02:07:18 10° W 02:12:07 59° S 02:13:29 42° SE
DELTA 2 R/B (1) 4.2 02:13:10 10° W 02:18:28 44° SSW 02:20:22 32° SSE
USA 186 3.8 02:16:17 13° SSW 02:18:30 25° W 02:21:05 10° NW
CZ-4 R/B 3.9 02:20:37 10° SW 02:23:26 18° W 02:26:14 10° NW
ATLAS 5 CENTAUR R/B 1.2 02:21:07 10° SW 02:24:24 65° NW 02:27:54 10° NNE
SPOT 5 3.4 02:24:45 43° E 02:25:35 47° ENE 02:30:41 10° N
Cosmos 2151 Rocket 4.4 02:28:53 35° NE 02:28:53 35° NE 02:31:54 10° NNE
Meteor 1-11 4.2 02:28:38 10° N 02:34:19 89° W 02:36:33 39° S
ERS-1 Rocket 3.7 02:36:16 36° ENE 02:36:16 36° ENE 02:40:27 10° N
Celestis-02/Orion 38 4.4 02:40:45 65° SE 02:41:29 80° ENE 02:46:33 10° NNW
MOS 1 4.2 02:45:26 49° S 02:47:05 83° WSW 02:52:50 10° NNW
Okean 2 Rocket 3.6 02:52:04 50° NNE 02:52:04 50° NNE 02:55:27 10° N
Cosmos 1934 Rocket 4.1 02:45:17 10° N 02:51:18 54° E 02:51:27 54° E
SJ 16-02 3.1 02:49:02 10° NW 02:52:41 27° W 02:54:06 22° SW
IRS-1C Rocket 3.9 02:56:50 78° S 02:57:12 87° WSW 03:02:31 10° NNW
Cosmos 371 Rocket 4.5 02:55:18 10° N 02:58:28 32° NNE 02:58:28 32° NNE
Cosmos 2297 Rocket 3.8 02:55:53 10° N 02:59:36 21° NE 02:59:36 21° NE
NOSS 3-1 (A) 3.3 02:59:14 10° SW 03:03:58 64° NW 03:09:33 10° NNE
MetOp-B 4.2 03:05:01 68° SW 03:05:26 72° WSW 03:10:48 10° NNW
Spot 2 Rocket 4.2 03:07:31 45° NNE 03:07:31 45° NNE 03:11:17 10° N
Okean-O 3.8 03:06:02 34° WSW 03:06:30 35° W 03:10:33 10° NNW
Sich 1 Rocket 4.4 03:07:42 47° NNW 03:07:42 47° NNW 03:10:59 10° N
Terra 2.7 03:09:26 42° NNE 03:09:26 42° NNE 03:12:42 10° N
USA 245 4.3 03:22:34 71° WNW 03:22:34 71° WNW 03:27:16 10° NNW
Ariane Rocket 3.7 03:27:13 48° N 03:27:13 48° N 03:30:51 10° NNW
SPOT 3 Rocket 4.3 03:34:29 48° NNW 03:34:29 48° NNW 03:38:11 10° NNW
ATLAS 3B R/B 4.1 03:42:44 10° WSW 03:49:12 38° NW 03:56:07 10° NNE
Cosmos 1605 Rocket 4.5 03:50:22 10° N 03:55:30 59° NNW 03:55:30 59° NNW
Cosmos 2227 Rocket 3.9 04:10:08 10° N 04:12:58 27° N 04:12:58 27° N
CZ-4C R/B 3.7 04:30:25 10° NNW 04:36:24 48° NNE 04:36:24 48° NNE
Cosmos 2297 Rocket 4.1 04:39:03 10° NNW 04:41:24 25° NW 04:41:24 25° NW
COSMOS 2455 4.5 04:41:09 10° NNW 04:44:04 30° NNW 04:44:04 30° NNW
CENTAUR R/B 3.8 05:08:17 10° NNW 05:15:26 52° NNE 05:15:26 52° NNE
Cosmos 2263 Rocket 4.4 05:13:58 10° NNW 05:15:40 20° N 05:15:40 20° N
Cosmos 2333 Rocket 4.3 06:52:51 22° NNE 06:52:51 22° NNE 06:54:44 10° NNE
Cosmos 2360 Rocket 4.3 06:56:51 23° NNE 06:56:51 23° NNE 06:58:49 10° NNE
Cosmos 2322 Rocket 4.2 07:06:40 23° N 07:06:40 23° N 07:08:47 10° NNE
Cosmos 2219 Rocket 4.1 07:14:08 25° NE 07:14:08 25° NE 07:16:25 10° NNE
USA 215 4.4 07:10:08 10° NNE 07:15:23 37° NNW 07:15:23 37° NNW
SL-16 R/B 4.3 07:22:36 19° NNW 07:22:36 19° NNW 07:24:47 10° N
ADEOS II 3.9 07:33:56 10° NNE 07:36:45 26° ENE 07:36:45 26° ENE
CZ-2D R/B 3.5 07:46:24 10° NNE 07:49:32 36° NNE 07:49:32 36° NNE
SL-16 R/B 3.7 07:51:51 31° E 07:53:33 37° ENE 07:59:09 10° N
COSMOS 2428 3.4 08:10:38 50° NNE 08:10:38 50° NNE 08:14:48 10° NNE
CZ-2C R/B 3.5 08:17:16 44° N 08:17:16 44° N 08:20:53 10° N
Cosmos 2237 Rocket 3.3 08:16:42 37° E 08:16:42 37° E 08:21:41 10° NE
Lacrosse 5 3.8 08:21:30 21° NNW 08:21:30 21° NNW 08:24:49 10° NNE
Meteor 1-11 Rocket 4.4 08:17:46 10° N 08:23:09 48° ENE 08:23:45 46° E
CZ-2C R/B 3.7 08:19:39 10° NNE 08:23:31 53° NNE 08:23:31 53° NNE
Cosmos 2322 4.5 08:26:12 44° NNW 08:26:12 44° NNW 08:30:28 10° NNE
ALOS 3.5 08:20:37 10° NNE 08:23:57 39° ENE 08:23:57 39° ENE
Resurs 1-4 Rocket 3.3 08:26:54 10° N 08:30:10 33° NNW 08:30:10 33° NNW
Cosmos 2333 Rocket 4.2 08:34:50 17° NW 08:34:50 17° NW 08:37:35 10° NNW
Cosmos 2360 Rocket 4.4 08:38:35 13° NW 08:38:35 13° NW 08:40:42 10° NNW
Nadezhda 4 Rocket 3.9 08:44:01 69° WNW 08:44:01 69° WNW 08:49:47 10° N
H-2A R/B 4.4 08:46:24 30° S 08:46:42 31° S 09:10:42 10° SE
NOSS 0 Rocket 3.7 08:48:14 78° W 08:48:27 79° WNW 08:54:38 10° NNE
Cosmos 1680 Rocket 4.4 08:47:51 39° SE 08:48:52 43° ESE 08:53:53 10° NNE
IDEFIX/ARIANE 42P 4.3 08:47:02 10° NNW 08:49:33 21° NW 08:49:33 21° NW
GP-B 3.9 08:46:48 10° N 08:49:53 45° N 08:49:53 45° N
Cosmos 2278 Rocket 2.8 08:46:51 10° NNW 08:52:26 55° ENE 08:57:58 10° SE
Meteor 2-17 Rocket 4.3 08:54:22 67° W 08:54:30 68° W 09:00:37 10° N
Cosmos 1428 Rocket 4.4 08:53:48 66° SSW 08:54:47 86° W 09:01:06 10° N
Cosmos 2219 Rocket 3.9 08:55:50 19° NW 08:55:50 19° NW 08:59:11 10° N
BREEZE-M DEB (TANK) 3.7 09:00:45 75° SSW 09:01:09 84° SE 09:12:31 10° NE
RESURS DK-1 3.8 09:04:22 29° NNW 09:04:22 29° NNW 09:06:48 10° N
Cosmos 1461 4.1 09:00:03 10° NNW 09:03:38 37° NE 09:07:11 10° SE
Meteor 2-10 4.3 08:58:17 10° N 09:03:56 73° E 09:07:23 25° SSE
SL-16 R/B 3.9 09:03:20 14° SSE 09:07:10 28° ESE 09:11:55 10° NE
Cosmos 1151 Rocket 3.1 09:07:55 74° NNE 09:07:55 74° NNE 09:11:52 10° N
METEOR-M 4.3 09:04:33 10° NNE 09:09:53 66° ESE 09:11:50 38° S
CZ-2C R/B 3.3 09:06:52 10° NNE 09:11:53 50° E 09:14:38 25° SSE
USA 308 4.5 09:12:46 22° SE 09:12:49 22° SE 09:15:48 10° ENE
ADEOS II 3.3 09:13:47 10° N 09:17:38 27° WNW 09:17:38 27° WNW
Cosmos 921 Rocket 4.0 09:16:42 30° SSE 09:18:11 41° E 09:22:13 10° NNE
Cosmos 1626 4.1 09:18:46 17° SE 09:20:15 23° E 09:22:56 10° NE
Meteor 1-19 Rocket 4.4 09:20:01 50° WSW 09:21:07 58° WNW 09:27:02 10° N
Cosmos 1975 4.0 09:19:36 10° N 09:23:15 40° E 09:26:55 10° SSE
Cosmos 923 Rocket 4.0 09:23:19 55° WSW 09:24:09 63° WNW 09:29:22 10° NNE
Cosmos 1092 Rocket 3.9 09:24:59 43° SW 09:26:52 61° W 09:32:57 10° N
CZ-2D R/B 4.0 09:28:22 10° NNW 09:30:50 14° WNW 09:30:50 14° WNW
Envisat 2.9 09:27:45 10° N 09:32:50 78° WNW 09:34:51 37° SSW
Cosmos 2026 Rocket 4.1 09:32:11 38° SW 09:34:20 54° W 09:40:33 10° N
NOSS 2-2 (E) 4.2 09:30:51 10° NW 09:35:53 83° WSW 09:43:07 10° SSE
BREEZE-M DEB (TANK) 3.0 09:34:04 35° WSW 09:36:13 59° NW 09:39:08 10° NE
SL-16 R/B 3.1 09:36:56 33° W 09:37:05 33° W 09:42:36 10° NW
EO 1 Delta rocket 4.2 09:36:39 10° N 09:41:01 43° WNW 09:41:49 39° WSW
Meteor 1-18 Rocket 4.2 09:39:20 17° S 09:43:45 84° E 09:49:28 10° N
Cosmos 1666 Rocket 3.6 09:40:19 10° N 09:44:47 82° E 09:49:12 10° S
CZ-4 R/B 4.3 09:44:21 10° N 09:48:46 40° WNW 09:49:59 34° WSW
NOSS 2-2 (D) 4.2 09:45:32 10° NW 09:50:28 85° WSW 09:57:34 10° SSE
Thor Agena Rocket 3.4 09:45:34 10° N 09:50:35 73° WNW 09:53:50 22° SSW
Cosmos 1733 4.4 09:47:48 10° NNW 09:49:45 24° NW 09:49:45 24° NW
Cosmos 1943 Rocket 2.1 09:45:54 10° NNW 09:51:36 86° WSW 09:57:15 10° SSE
Meteor 2-4 Rocket 3.6 09:48:37 23° SSW 09:51:59 68° W 09:57:28 10° N
YAOGAN 6 2.3 09:49:15 10° N 09:52:29 60° WNW 09:53:02 50° WSW
H-2A R/B 3.5 09:49:48 10° NNE 09:54:26 36° E 09:59:09 10° SSE
BlueWalker 3 3.1 09:52:14 10° NW 09:55:55 42° NE 09:59:33 10° ESE
NOAA 11 4.3 09:53:24 10° N 09:58:43 55° WNW 10:02:18 21° SW
Cosmos 2237 Rocket 3.2 09:58:31 23° W 10:00:35 29° WNW 10:05:31 10° N
ALOS 4.0 09:59:05 10° NNW 10:01:54 16° WNW 10:02:16 16° WNW
Cosmos 2112 Rocket 4.4 10:01:07 25° SW 10:03:46 44° WNW 10:08:53 10° N
Cosmos 1340 Rocket 3.5 10:04:12 29° W 10:04:53 31° WNW 10:08:21 10° NNW
Cosmos 1867 4.4 10:00:55 10° NW 10:05:24 26° WSW 10:09:51 10° SSW
DMSP B5D2-2 4.0 10:03:58 10° S 10:09:09 77° WSW 10:14:22 10° NNW
Cosmos 2369 Rocket 4.4 10:05:57 10° N 10:10:45 28° ENE 10:15:29 10° ESE
Cosmos 1328 Rocket 4.0 10:08:30 21° SW 10:11:00 43° W 10:15:14 10° N
Cosmos 1805 3.8 10:08:44 10° NNW 10:12:05 33° W 10:13:51 21° SW
ATLAS 2AS CENTAUR R/B 2.9 10:07:19 17° SW 10:13:12 69° NW 10:20:25 10° NNE
CRYOSAT 2 4.3 10:08:19 10° N 10:13:13 89° E 10:18:05 10° S
Cosmos 1707 4.2 10:13:35 10° SSE 10:16:57 36° E 10:20:22 10° NNE
SWAS 4.4 10:14:25 10° NNW 10:18:32 55° WSW 10:22:38 10° S
Chandra Rocket (1) 3.4 10:18:55 15° SSW 10:21:04 25° SSE 10:26:47 10° ESE
IRS-1D 4.1 10:17:05 10° N 10:21:49 39° WNW 10:26:05 13° SW
Cosmos 1633 Rocket 3.4 10:18:36 10° NNW 10:22:43 43° W 10:26:49 10° SSW
S3M 4.1 10:17:54 10° N 10:24:05 85° E 10:30:20 10° S
Cosmos 1048 Rocket 4.1 10:21:47 10° SSW 10:27:08 89° E 10:32:27 10° NNE
Cosmos 2266 Rocket 3.9 10:23:40 10° SSW 10:29:46 71° W 10:35:49 10° N
Cosmos 1655 Rocket 4.1 10:24:01 10° S 10:30:13 81° E 10:36:27 10° N
SL-08 ROCKET BODY 4.3 10:29:26 10° SSW 10:35:18 75° W 10:41:17 10° N
Cosmos 2278 Rocket 3.5 10:32:11 10° WNW 10:35:59 19° W 10:39:46 10° SW
Cosmos 1461 4.3 10:39:25 10° WNW 10:41:34 15° WSW 10:43:41 10° SW
ARIANE 5 R/B 3.6 10:36:33 10° NNE 10:41:37 48° E 10:46:38 10° S
USA 308 3.2 10:41:22 12° WSW 10:44:43 43° NW 10:48:28 10° NE
Cosmos 1674 2.5 10:41:23 10° SSW 10:44:44 54° W 10:48:07 10° N
Cosmos 2056 Rocket 4.1 10:41:35 10° NW 10:46:30 36° W 10:51:24 10° SSW
ATLAS 5 CENTAUR R/B 3.7 10:43:31 10° WSW 10:47:10 13° SSW 10:49:35 10° S
Cosmos 494 Rocket 4.5 10:43:24 10° SW 10:48:16 41° WNW 10:53:08 10° N
CZ-2C R/B 4.0 10:46:00 10° NNW 10:49:35 19° WNW 10:53:10 10° WSW
Cosmos 2315 Rocket 4.0 10:44:36 10° N 10:50:50 88° W 10:57:02 10° S
SL-16 R/B 2.9 10:45:53 10° SW 10:51:04 37° WNW 10:56:18 10° N
ARGOS 3.9 10:45:51 10° NNE 10:51:08 56° E 10:56:22 10° S
Cosmos 1766 3.7 10:48:46 10° NNW 10:52:09 35° W 10:55:30 10° SSW
Cosmos 1939 Rocket 2.7 10:48:28 10° N 10:52:13 71° WNW 10:55:59 10° SSW
Cosmos 1452 Rocket 3.9 10:48:29 10° NNW 10:53:44 71° ENE 10:58:57 10° SSE
Cosmos 1626 3.8 10:52:19 10° WSW 10:54:01 13° WNW 10:55:44 10° NW
Cosmos 1340 4.3 10:52:29 10° WNW 10:54:13 13° W 10:55:57 10° WSW
Cosmos 1110 Rocket 4.4 10:51:06 10° NNW 10:56:23 72° ENE 11:01:39 10° SSE
KORONAS-FOTON 4.0 10:53:20 10° SSW 10:56:53 47° W 11:00:26 10° N
Cosmos 1656 Rocket 3.6 10:54:47 10° NNW 11:00:13 89° WSW 11:05:38 10° SSE
NOSS 3-1 (C) 4.3 10:54:04 10° NW 11:01:53 82° WSW 11:11:06 10° SSE
